Location: Vulcan
(50.4000°N, 113.2500°W)
Time: 05:48:53
(UTC-07:00)

Tiros 1 despin weight - Visible Passes

Search period start: 22 November 2019 00:00
Search period end: 02 December 2019 00:00
Orbit: 594 x 642 km, 48.2° (Epoch: 22 November)

Date Brightness Start Highest point End Pass type
(mag) Time Alt. Az. Time Alt. Az. Time Alt. Az.
22 Nov ? 17:53:29 10° W 17:57:12 26° SSW 18:00:56 10° SSE visible
23 Nov ? 18:10:35 10° WSW 18:13:25 17° SW 18:16:17 10° S visible
26 Nov ? 17:19:17 10° WSW 17:21:25 13° SW 17:23:34 10° SSW visible
